Voltar ao catálogo

STARLINK-34171

AtivoComunicaçõesVLEO
NORAD 64082·PAYLOAD·🇺🇸 United States

Lançado May 21, 2025 de Cape Canaveral Space Force Station

Loading…

Próximas Passagens (próximas 24 horas)

TLE

AtualizadoSource: CelesTrak SupGP

Época: Sep 14, 2026, 20:58 UTC

1 64082C 25107U   26257.87409722  .00024461  00000+0  88604-3 0  2578
2 64082  43.0004 212.7815 0001096 257.7335 249.5101 15.27564473    14

Acompanhe STARLINK-34171 em tempo real com AllMySat

Download on the App Store